DW8450 Weather Reports


time (UTC)temp
F
wind
direction
speed
knots
gust
knots
rain 1hr
in
rain 24hr
in
rain mn
in
humidity
%
barometer
mb
20211205103114 39 300 3.5 5.2 0.00 0.00 0.00 44 1017.1
20211205101555 42 302 3.5 5.2 0.00 0.00 0.00 39 1017.2
20211205100056 43 315 5.2 10.4 0.00 0.00 0.00 37 1017.3
20211205094614 44 311 4.3 11.3 0.00 0.00 0.00 37 1017.4
20211205093115 45 317 4.3 11.3 0.00 0.00 0.00 36 1017.5
20211205091627 45 330 5.2 10.4 0.00 0.00 0.00 36 1017.6
20211205090150 45 327 7.0 12.2 0.00 0.00 0.00 37 1017.7
20211205084611 44 332 7.0 12.2 0.00 0.00 0.00 41 1017.8
20211205081522 38 324 4.3 8.7 0.00 0.00 0.00 51 1018.2
20211205080050 36 313 0.9 5.2 0.00 0.00 0.00 52 1018.3
20211205074552 34 313 1.7 5.2 0.00 0.00 0.00 57 1018.6
20211205073019 34 305 0.0 1.7 0.00 0.00 0.00 57 1018.8
20211205071529 34 305 0.0 2.6 0.00 0.00 0.00 56 1018.8
20211205070011 35 305 0.0 0.0 0.00 0.00 0.00 55 1018.9
20211205064507 36 305 0.0 2.6 0.00 0.00 0.00 55 1019.2
20211205063007 36 305 0.0 0.0 0.00 0.00 0.00 55 1019.1
20211205061511 36 305 0.0 0.0 0.00 0.00 0.00 55 1019.2
20211205060009 37 305 0.0 0.0 0.00 0.00 0.00 54 1019.3
20211205054514 37 305 0.0 2.6 0.00 0.00 0.00 53 1019.5
20211205053005 37 305 0.9 3.5 0.00 0.00 0.00 53 1019.8
20211205051504 38 305 0.9 3.5 0.00 0.00 0.00 52 1019.8
20211205050005 39 305 0.9 3.5 0.00 0.00 0.00 52 1019.9
20211205044504 39 305 0.9 3.5 0.00 0.00 0.00 50 1019.9
20211205043003 40 305 0.9 3.5 0.00 0.00 0.00 49 1019.9
20211205041504 41 305 2.6 5.2 0.00 0.00 0.00 50 1019.8
20211205040002 40 300 1.7 4.3 0.00 0.00 0.00 51 1019.8
20211205034510 40 291 0.9 4.3 0.00 0.00 0.00 51 1019.9
20211205033010 39 267 0.9 3.5 0.00 0.00 0.00 52 1019.8
20211205031503 39 266 0.0 1.7 0.00 0.00 0.00 50 1019.7
20211205030128 40 266 0.0 2.6 0.00 0.00 0.00 48 1019.6
20211205024640 40 266 0.0 0.9 0.00 0.00 0.00 48 1019.6
20211205023216 41 266 0.0 0.9 0.00 0.00 0.00 47 1019.5
20211205021725 41 266 0.0 0.9 0.00 0.00 0.00 47 1019.5
20211205020112 42 266 0.0 0.0 0.00 0.00 0.00 45 1019.5
20211205014809 42 266 0.0 0.0 0.00 0.00 0.00 44 1019.5
20211205013149 43 266 0.0 0.0 0.00 0.00 0.00 44 1019.5
20211205011633 43 266 0.0 0.0 0.00 0.00 0.00 42 1019.5
20211205010106 44 266 0.0 0.0 0.00 0.00 0.00 40 1019.4
20211205004616 46 266 0.0 0.0 0.00 0.00 0.00 38 1019.5
20211205003120 48 266 0.0 0.0 0.00 0.00 0.00 35 1019.4
20211205001635 49 266 0.0 0.0 0.00 0.00 0.00 33 1019.4
20211205000141 51 266 0.0 0.9 0.00 0.00 0.00 32 1019.4
20211204234629 52 266 0.0 2.6 0.00 0.00 0.00 30 1019.5
20211204233055 54 266 0.9 4.3 0.00 0.00 0.00 29 1019.4
20211204231724 55 268 1.7 7.0 0.00 0.00 0.00 28 1019.3
20211204230112 55 273 2.6 5.2 0.00 0.00 0.00 28 1019.1
20211204224641 56 263 2.6 7.8 0.00 0.00 0.00 28 1019.1
20211204223117 56 292 3.5 8.7 0.00 0.00 0.00 27 1018.8
20211204221709 57 284 5.2 10.4 0.00 0.00 0.00 27 1018.7
20211204214609 57 289 3.5 8.7 0.00 0.00 0.00 28 1018.6
20211204213138 58 282 3.5 9.6 0.00 0.00 0.00 28 1018.5
20211204211649 58 280 4.3 10.4 0.00 0.00 0.00 28 1018.6
20211204210118 58 284 5.2 10.4 0.00 0.00 0.00 28 1018.7
20211204204614 58 279 3.5 9.6 0.00 0.00 0.00 27 1018.8
20211204203157 59 299 5.2 10.4 0.00 0.00 0.00 27 1018.9
20211204201624 59 292 4.3 8.7 0.00 0.00 0.00 27 1019.1
20211204200055 58 281 3.5 9.6 0.00 0.00 0.00 27 1019.3
20211204194629 58 292 3.5 10.4 0.00 0.00 0.00 28 1019.7
20211204193051 58 263 3.5 11.3 0.00 0.00 0.00 28 1019.9
20211204191620 58 288 3.5 8.7 0.00 0.00 0.00 28 1020.3
20211204190107 58 292 5.2 10.4 0.00 0.00 0.00 28 1020.7
20211204184559 57 249 2.6 8.7 0.00 0.00 0.00 30 1021.1
20211204183025 56 274 4.3 7.8 0.00 0.00 0.00 30 1021.5
20211204181531 55 286 4.3 7.8 0.00 0.00 0.00 32 1021.8
20211204180020 54 269 1.7 6.1 0.00 0.00 0.00 35 1022.1
20211204174522 53 259 2.6 6.1 0.00 0.00 0.00 37 1022.5
20211204173032 51 290 1.7 5.2 0.00 0.00 0.00 39 1022.6
20211204171505 49 309 0.9 4.3 0.00 0.00 0.00 44 1022.7
20211204164651 47 342 0.9 4.3 0.00 0.00 0.00 47 1023.0
20211204163136 46 51 0.9 4.3 0.00 0.00 0.00 48 1023.1
20211204161601 45 53 1.7 4.3 0.00 0.00 0.00 50 1023.2
20211204160200 44 53 0.9 2.6 0.00 0.00 0.00 52 1023.2
20211204154634 43 53 0.0 0.0 0.00 0.00 0.00 55 1023.3
20211204153038 41 53 0.0 1.7 0.00 0.00 0.00 61 1023.4
20211204151634 38 53 0.0 0.0 0.00 0.00 0.00 66 1023.4
20211204150046 35 53 0.0 0.0 0.00 0.00 0.00 70 1023.2
20211204144540 33 53 0.0 0.0 0.00 0.00 0.00 73 1023.1
20211204143112 33 53 0.0 0.0 0.00 0.00 0.00 72 1023.2
20211204141535 33 53 0.0 0.0 0.00 0.00 0.00 71 1023.2
20211204140030 32 53 0.0 0.0 0.00 0.00 0.00 70 1023.1
20211204134521 33 53 0.0 0.0 0.00 0.00 0.00 68 1023.2
20211204133016 32 53 0.0 2.6 0.00 0.00 0.00 69 1023.1
20211204131517 32 53 0.9 1.7 0.00 0.00 0.00 70 1023.0
20211204130030 32 53 0.0 0.9 0.00 0.00 0.00 66 1022.9
20211204124514 33 53 0.0 2.6 0.00 0.00 0.00 65 1022.8
20211204123028 33 53 0.0 1.7 0.00 0.00 0.00 66 1022.7
20211204121513 33 53 0.9 2.6 0.00 0.00 0.00 66 1022.7
20211204120033 33 53 0.0 2.6 0.00 0.00 0.00 66 1022.7
20211204114532 33 53 0.0 2.6 0.00 0.00 0.00 64 1022.6
20211204113030 33 53 0.0 2.6 0.00 0.00 0.00 64 1022.6
20211204111523 33 53 1.7 4.3 0.00 0.00 0.00 65 1022.6
20211204110016 32 53 0.9 2.6 0.00 0.00 0.00 65 1022.5
20211204104514 32 53 0.0 2.6 0.00 0.00 0.00 64 1022.6